Torna al catalogo

FENGYUN 1C DEB

AttivoPO
NORAD 30095·DEBRIS·🇨🇳 China

Lanciato May 10, 1999 da Taiyuan Satellite Launch Center

Loading…

Prossimi Passaggi (prossime 24 ore)

TLE

AggiornatoSource: Space-Track

Epoca: Sep 12, 2026, 15:42 UTC

1 30095U 99025QY  26255.65447529  .00006632  00000-0  56605-3 0  9996
2 30095  99.2382 225.8281 0143214 186.1398 173.8066 14.90471997 34044

Traccia FENGYUN 1C DEB in tempo reale con AllMySat

Download on the App Store